Location: Newark
(37.1692°N, 95.2017°W)
Time: 09:50:56
(UTC+00:00)

N. Korean satellite - Visible Passes

Search period start: 27 January 2020 00:00
Search period end: 06 February 2020 00:00
Orbit: 454 x 507 km, 97.2° (Epoch: 26 January)

Date Brightness Start Highest point End Pass type
(mag) Time Alt. Az. Time Alt. Az. Time Alt. Az.
27 Jan 9.7 11:14:10 10° NE 11:16:25 16° E 11:18:40 10° SE visible
27 Jan 7.5 12:46:43 10° NNW 12:49:47 26° WNW 12:52:52 10° SW visible
28 Jan 6.6 12:20:50 10° N 12:24:23 59° WNW 12:27:59 10° SSW visible
29 Jan 10.1 00:29:46 10° WSW 00:30:57 11° W 00:32:08 10° WNW visible
29 Jan 7.2 11:55:20 10° NNE 11:58:55 58° E 12:02:31 10° S visible
30 Jan 9.2 00:02:26 10° SSW 00:05:17 25° W 00:08:10 10° NW visible
30 Jan 8.9 11:30:16 10° NE 11:33:22 26° E 11:36:27 10° SSE visible
31 Jan 10.0 11:06:08 10° ENE 11:07:43 12° E 11:09:18 10° ESE visible
31 Jan 7.2 12:37:52 10° N 12:41:11 34° WNW 12:44:32 10° SW visible
01 Feb 6.5 12:12:07 10° N 12:15:46 79° WNW 12:19:26 10° SSW visible
02 Feb 9.8 00:20:11 10° SW 00:22:12 15° W 00:24:15 10° WNW visible
02 Feb 7.8 11:46:44 10° NNE 11:50:16 44° E 11:53:48 10° S visible
03 Feb 9.4 11:21:52 10° NE 11:24:40 20° E 11:27:29 10° SE visible
04 Feb 6.9 12:29:03 10° N 12:32:34 45° WNW 12:36:06 10° SSW visible
05 Feb 6.7 12:03:26 10° NNE 12:07:07 79° E 12:10:49 10° S visible
